Weather reports worldwide

Advertisment
Waldmünchen, Germany (10782): temperature & dewpoint: 08.12.2019 06:00:00 - 14.12.2019 06:00:00 (CET)Waldmünchen, Germany (10782): temperature 5cm & temperature -5cm: 08.12.2019 06:00:00 - 14.12.2019 06:00:00 (CET)Waldmünchen, Germany (10782): temperature -20cm & temperature -100cm: 08.12.2019 06:00:00 - 14.12.2019 06:00:00 (CET)Waldmünchen, Germany (10782): wind speed & gusts: 08.12.2019 06:00:00 - 14.12.2019 06:00:00 (CET)Waldmünchen, Germany (10782): wind direction: 08.12.2019 06:00:00 - 14.12.2019 06:00:00 (CET)Waldmünchen, Germany (10782): reduced air pressure: 08.12.2019 06:00:00 - 14.12.2019 06:00:00 (CET)Waldmünchen, Germany (10782): visibility: 08.12.2019 06:00:00 - 14.12.2019 06:00:00 (CET)Waldmünchen, Germany (10782): sunshine duration: 08.12.2019 06:00:00 - 14.12.2019 06:00:00 (CET)Waldmünchen, Germany (10782): precipitation: 08.12.2019 06:00:00 - 14.12.2019 06:00:00 (CET)
Date & Time tt [°C] td [°C] tt 5cm [°C] tt -5cm [°C] tt -20cm [°C] tt -100cm [°C] ff [km/h] ff [kn] fx [km/h] fx [kn] dd ppp [hPa] vv [km] sd [min] rr [mm]
14.12.2019 06:00:00 1,7 -0,5 0,6 0,9 2,0 6,8 17 9 26 14 S 993,2 54 0 0,0
14.12.2019 05:00:00 2,4 0,2 1,8 1,5 1,9 6,8 21 11 39 21 SSW 993,6 53 0 0,0
14.12.2019 04:00:00 2,6 0,7 2,2 1,6 1,9 6,8 27 15 42 23 SSW 993,7 43 0 0,0
14.12.2019 03:00:00 2,6 0,9 2,2 1,5 1,8 6,8 22 12 41 22 SW 993,3 65 0 0,0
14.12.2019 02:00:00 2,7 0,8 2,4 1,4 1,7 6,8 27 15 42 23 WSW 992,8 75 0 0,0
14.12.2019 01:00:00 2,6 0,9 2,1 1,2 1,7 6,9 23 12 42 23 WSW 991,9 75 0 0,0
14.12.2019 00:00:00 2,2 1,0 1,7 0,7 1,6 6,9 26 14 42 23 SW 991,2 9 0 0,3
13.12.2019 23:00:00 2,3 0,9 1,6 0,5 1,6 6,9 27 15 50 27 SW 990,5 11 0 0,3
13.12.2019 22:00:00 2,6 1,0 1,9 0,4 1,6 6,9 29 16 48 26 SW 989,4 18 0 0,0
13.12.2019 21:00:00 2,6 0,9 1,7 0,3 1,6 6,9 27 15 46 25 SW 989,0 11 0 0,0
13.12.2019 20:00:00 2,5 0,6 1,7 0,3 1,6 6,9 23 12 44 24 SSW 988,6 50 0 0,0
13.12.2019 19:00:00 2,4 0,5 1,3 0,4 1,6 6,9 27 14 44 24 SSW 987,8 41 0 0,0
13.12.2019 18:00:00 2,2 0,5 1,0 0,4 1,6 6,9 24 13 39 21 SSW 986,6 24 0 0,0
13.12.2019 17:00:00 1,8 0,3 0,0 0,4 1,6 6,9 21 11 42 23 SW 985,6 29 0 0,0
13.12.2019 16:00:00 1,5 -0,1 0,0 0,4 1,6 6,9 26 14 46 25 SSW 984,5 30 0 0,0
13.12.2019 15:00:00 0,5 -0,6 0,1 0,4 1,6 6,9 30 16 41 22 S 984,3 8 0 0,4
13.12.2019 14:00:00 0,4 -0,4 0,1 0,4 1,7 6,9 18 10 31 17 SSW 984,4 2,8 0 1,3
13.12.2019 13:00:00 -0,3 -0,9 -0,1 0,4 1,7 6,9 9 5 23 13 S 984,2 1,4 0 0,6
13.12.2019 12:00:00 1,1 -1,8 1,0 0,4 1,7 6,9 13 7 21 11 WSW 983,4 43 0 0,0
13.12.2019 11:00:00 2,5 -3,1 2,4 0,3 1,7 7,0 14 7 23 12 ESE 982,4 69 50 0,0
13.12.2019 10:00:00 1,0 -2,0 2,9 0,3 1,7 7,0 4 2 8 5 WNW 983,9 75 29 0,0
13.12.2019 09:00:00 -0,4 -2,4 -0,8 0,3 1,7 7,0 0 0 13 7 N 985,4 42 0 0,0
13.12.2019 08:00:00 -1,3 -2,5 -1,5 0,3 1,7 7,0 6 3 11 6 NE 986,9 25 0 0,0
13.12.2019 07:00:00 -1,7 -2,7 -2,0 0,3 1,7 7,0 4 2 10 6 N 988,0 21 0 0,0
13.12.2019 06:00:00 -2,3 -3,2 -2,4 0,3 1,7 7,0 6 3 10 5 ENE 989,3 14 0 0,0
13.12.2019 05:00:00 -1,8 -2,7 -3,3 0,4 1,7 7,0 6 3 10 5 ENE 990,5 20 0 0,0
13.12.2019 04:00:00 -0,8 -2,7 -2,9 0,4 1,7 7,0 5 3 20 11 E 992,1 37 0 0,0
13.12.2019 03:00:00 0,4 -2,4 -0,6 0,4 1,7 7,0 18 10 33 18 SE 993,5 53 0 0,0
13.12.2019 02:00:00 0,7 -2,1 0,4 0,4 1,7 7,0 10 5 24 13 SE 995,2 39 0 0,0
13.12.2019 01:00:00 1,0 -1,1 0,4 0,4 1,7 7,0 13 7 22 12 SE 996,6 31 0 0,0
13.12.2019 00:00:00 0,9 -0,4 0,7 0,4 1,7 7,0 9 5 20 11 SE 998,0 15 0 0,0
12.12.2019 23:00:00 0,7 -0,3 0,5 0,4 1,7 7,0 13 7 22 12 SSE 999,5 11 0 0,0
12.12.2019 22:00:00 0,9 0,0 0,7 0,4 1,7 7,0 11 6 18 10 SE 1000,6 10 0 0,0
12.12.2019 21:00:00 1,0 -0,1 0,7 0,3 1,7 7,0 9 5 18 10 SSE 1001,9 11 0 0,0
12.12.2019 20:00:00 1,1 -0,1 0,9 0,3 1,7 7,0 11 6 19 11 SSE 1002,6 11 0 0,0
12.12.2019 19:00:00 1,2 0,0 0,7 0,3 1,7 7,0 9 5 13 7 SW 1003,4 9 0 0,0
12.12.2019 18:00:00 1,1 -0,1 0,7 0,3 1,7 7,1 10 6 16 9 S 1004,1 11 0 0,0
12.12.2019 17:00:00 1,0 -0,1 0,4 0,3 1,7 7,1 8 4 16 8 S 1004,7 9 0 0,0
12.12.2019 16:00:00 1,1 0,0 0,9 0,3 1,8 7,1 9 5 19 11 SSW 1005,1 11 0 0,0
12.12.2019 15:00:00 1,1 -0,1 1,0 0,3 1,8 7,1 13 7 21 11 SSW 1005,6 12 0 0,0
12.12.2019 14:00:00 1,0 -0,1 1,1 0,3 1,8 7,1 10 6 16 9 SW 1006,1 10 0 0,0
12.12.2019 13:00:00 0,8 0,0 1,2 0,3 1,8 7,1 10 6 18 10 SW 1006,9 7 0 0,0
12.12.2019 12:00:00 0,8 -0,3 0,9 0,3 1,8 7,1 12 6 16 9 SSW 1007,5 11 0 0,0
12.12.2019 11:00:00 0,6 -0,3 0,3 0,3 1,8 7,1 3 2 9 5 S 1007,9 9 0 0,0
12.12.2019 10:00:00 0,4 -0,5 0,1 0,3 1,8 7,1 7 4 9 5 SSW 1008,3 10 0 0,0
12.12.2019 09:00:00 0,3 -0,6 0,1 0,3 1,8 7,1 4 2 8 4 SW 1008,0 13 0 0,1
12.12.2019 08:00:00 0,1 -0,6 -0,1 0,3 1,8 7,1 4 2 12 6 SW 1008,0 6 0 0,1
12.12.2019 07:00:00 0,2 -0,7 0,0 0,3 1,8 7,1 6 4 13 7 SSW 1007,9 3,6 0 0,1
12.12.2019 06:00:00 0,1 -0,6 -0,1 0,3 1,8 7,1 3 2 13 7 WSW 1007,5 2,8 0 0,4
12.12.2019 05:00:00 0,2 -0,8 0,0 0,3 1,8 7,1 7 4 18 10 SW 1007,2 5 0 0,1
12.12.2019 04:00:00 0,2 -1,1 0,0 0,3 1,8 7,1 7 4 18 10 SSW 1007,4 6 0 0,0
12.12.2019 03:00:00 0,0 -1,4 -0,2 0,3 1,8 7,1 7 4 15 8 SSW 1008,1 18 0 0,0
12.12.2019 02:00:00 -0,4 -2,7 -0,5 0,3 1,9 7,1 6 3 17 9 SW 1008,6 12 0 0,0
12.12.2019 01:00:00 0,4 -4,2 0,0 0,2 1,9 7,1 7 4 21 11 SSW 1008,8 46 0 0,0
12.12.2019 00:00:00 0,3 -4,3 0,1 0,2 1,9 7,1 10 6 19 11 SSW 1009,2 49 0 0,0
11.12.2019 23:00:00 0,3 -3,6 0,1 0,2 1,9 7,1 5 3 16 9 SSW 1009,9 40 0 0,0
11.12.2019 22:00:00 0,0 -3,1 -0,5 0,2 1,9 7,1 4 2 11 6 S 1009,8 37 0 0,0
11.12.2019 21:00:00 -1,5 -2,5 -1,1 0,2 1,9 7,1 4 2 7 4 W 1010,9 18 0 0,0
11.12.2019 20:00:00 -1,8 -3,2 -2,2 0,2 1,9 7,1 4 2 8 4 W 1010,8 27 0 0,0
11.12.2019 19:00:00 -1,6 -2,9 -2,1 0,2 1,9 7,1 4 2 5 3 E 1011,4 28 0 0,0
11.12.2019 18:00:00 -1,0 -2,9 -1,9 0,2 2,0 7,1 3 2 11 6 E 1011,7 37 0 0,0
11.12.2019 17:00:00 -0,9 -3,1 -1,9 0,2 2,0 7,1 4 2 6 3 ENE 1012,1 40 0 0,0
11.12.2019 16:00:00 0,5 -3,2 -1,7 0,1 2,0 7,2 3 1 10 6 NW 1012,2 31 0 0,0
11.12.2019 15:00:00 1,5 -3,1 0,1 0,1 2,1 7,2 9 5 11 6 W 1012,5 44 49 0,0
11.12.2019 14:00:00 2,5 -4,0 2,3 0,1 2,1 7,2 7 4 21 11 W 1013,3 60 60 0,0
11.12.2019 13:00:00 2,5 -5,1 2,5 0,1 2,1 7,2 13 7 21 11 S 1014,2 63 60 0,0
11.12.2019 12:00:00 1,6 -4,8 0,8 0,1 2,2 7,2 12 7 22 12 SSE 1015,8 65 60 0,0
11.12.2019 11:00:00 0,7 -4,3 -0,2 0,0 2,2 7,2 15 8 23 12 S 1017,4 52 60 0,0
11.12.2019 10:00:00 -0,6 -4,1 -0,5 0,0 2,3 7,2 4 2 13 7 SSW 1018,5 40 60 0,0
11.12.2019 09:00:00 -3,4 -5,4 -3,2 0,0 2,3 7,2 7 4 10 5 W 1019,9 25 31 0,0
11.12.2019 08:00:00 -3,2 -5,1 -5,3 0,1 2,4 7,2 6 3 13 7 W 1020,0 29 0 0,0
11.12.2019 07:00:00 -3,7 -5,3 -5,8 0,2 2,5 7,2 9 5 11 6 WNW 1020,7 22 0 0,0
11.12.2019 06:00:00 -2,8 -4,4 -5,3 0,2 2,5 7,2 6 3 8 4 WNW 1020,9 24 0 0,0
11.12.2019 05:00:00 -3,9 -4,7 -6,4 0,3 2,6 7,2 4 2 6 4 WNW 1022,0 12 0 0,0
11.12.2019 04:00:00 -2,6 -4,0 -5,8 0,4 2,6 7,2 6 3 13 7 NW 1022,6 18 0 0,0
11.12.2019 03:00:00 -1,9 -3,4 -4,8 0,5 2,7 7,2 5 3 10 5 SSW 1023,5 19 0 0,0
11.12.2019 02:00:00 -2,1 -3,5 -4,0 0,6 2,8 7,1 6 3 11 6 S 1024,8 21 0 0,0
11.12.2019 01:00:00 -1,8 -2,9 -3,8 0,6 2,9 7,1 6 4 11 6 S 1025,6 17 0 0,0
11.12.2019 00:00:00 -2,1 -2,7 -4,1 0,7 3,0 7,1 3 2 5 3 SE 1026,4 11 0 0,0
10.12.2019 23:00:00 -3,4 -3,9 -4,6 0,8 3,1 7,1 0 0 7 4 N 1027,3 3,9 0 0,0
10.12.2019 22:00:00 -2,4 -3,0 -4,1 0,9 3,2 7,1 3 2 6 3 NE 1027,2 3,7 0 0,0
10.12.2019 21:00:00 -1,9 -2,5 -3,2 0,9 3,3 7,1 4 2 6 3 NE 1027,8 6 0 0,0
10.12.2019 20:00:00 -1,0 -1,6 -2,4 1,0 3,4 7,1 4 2 6 3 ENE 1028,0 9 0 0,0
10.12.2019 19:00:00 -0,3 -1,1 -1,6 1,0 3,6 7,1 4 2 6 3 NNE 1028,1 13 0 0,0
10.12.2019 18:00:00 1,1 -0,5 -0,3 1,8 3,6 7,1 5 3 7 4 SSW 1027,7 23 0 0,0
10.12.2019 17:00:00 1,5 -0,1 1,0 2,5 3,7 7,1 4 2 9 5 NNE 1028,0 25 0 0,0
10.12.2019 16:00:00 2,0 -0,2 1,7 2,9 3,7 7,1 7 4 18 10 WSW 1028,0 29 0 0,0
10.12.2019 15:00:00 2,2 0,1 2,3 3,3 3,6 7,1 11 6 16 9 WSW 1027,7 26 0 0,0
10.12.2019 14:00:00 2,0 -0,4 2,0 3,4 3,5 7,1 10 5 22 12 WNW 1027,8 29 0 0,0
10.12.2019 13:00:00 2,5 -0,5 3,2 3,8 3,4 7,1 13 7 24 13 W 1027,5 34 1 0,0
10.12.2019 12:00:00 2,3 -0,2 2,9 3,3 3,4 7,1 14 8 24 13 WNW 1027,4 40 0 0,0
10.12.2019 11:00:00 1,7 -0,5 2,4 2,6 3,4 7,1 17 9 27 15 W 1027,2 29 0 0,0
10.12.2019 10:00:00 1,5 -0,2 1,6 1,9 3,4 7,1 19 10 25 14 W 1026,7 28 0 0,0
10.12.2019 09:00:00 1,1 -0,6 0,8 1,3 3,6 7,1 16 8 22 12 W 1025,6 26 0 0,0
10.12.2019 08:00:00 0,4 -0,4 -0,3 1,3 3,7 7,1 6 3 13 7 WNW 1024,7 26 0 0,1
10.12.2019 07:00:00 1,2 -0,8 0,4 1,6 3,8 7,1 5 3 16 9 NW 1023,4 33 0 0,0
10.12.2019 06:00:00 1,8 -1,0 0,4 1,9 3,9 7,1 6 4 15 8 NW 1021,9 34 0 0,0
10.12.2019 05:00:00 1,8 0,0 0,9 2,0 4,1 7,1 10 5 17 9 NW 1020,5 39 0 0,0
10.12.2019 04:00:00 2,4 0,0 1,2 2,6 4,1 7,1 5 3 21 11 NW 1019,0 46 0 0,0
10.12.2019 03:00:00 2,7 0,4 1,7 3,0 4,2 7,1 6 4 34 18 N 1017,3 75 0 1,2
10.12.2019 02:00:00 3,5 2,0 3,0 3,4 4,2 7,1 12 7 20 11 W 1015,2 7 0 0,7
10.12.2019 01:00:00 3,5 2,5 3,3 3,4 4,2 7,1 8 4 12 6 WSW 1014,0 13 0 0,0
10.12.2019 00:00:00 3,5 2,1 3,2 3,4 4,3 7,1 6 4 14 8 W 1012,9 54 0 0,0
09.12.2019 23:00:00 3,0 2,1 2,9 3,4 4,3 7,1 5 3 11 6 S 1011,6 66 0 0,0
09.12.2019 22:00:00 3,3 1,9 2,9 3,5 4,4 7,1 8 5 12 7 W 1010,8 38 0 1,4
09.12.2019 21:00:00 3,6 2,7 3,3 3,6 4,4 7,1 7 4 9 5 SW 1009,3 23 0 0,0
09.12.2019 20:00:00 3,8 2,2 3,1 3,6 4,5 7,1 6 4 32 17 WSW 1008,2 75 0 0,5
09.12.2019 19:00:00 5,1 1,8 4,4 3,5 4,5 7,1 5 3 16 9 SW 1006,9 66 0 0,0
09.12.2019 18:00:00 4,5 1,4 3,7 3,5 4,6 7,1 14 8 35 19 WSW 1006,0 54 0 0,0
09.12.2019 17:00:00 5,7 1,5 3,8 3,9 4,6 7,1 26 14 36 20 SSW 1005,0 73 0 0,1
09.12.2019 16:00:00 6,2 2,1 4,6 4,8 4,6 7,1 21 11 35 19 SSW 1004,7 29 8 0,0
09.12.2019 15:00:00 6,5 1,9 6,1 5,2 4,5 7,1 16 8 34 18 SSW 1004,3 71 5 0,0
09.12.2019 14:00:00 6,3 1,9 6,0 5,1 4,4 7,1 19 10 34 19 SSW 1004,6 69 0 0,0
09.12.2019 13:00:00 6,3 1,5 6,1 5,4 4,3 7,1 24 13 39 21 SSW 1004,7 65 14 0,0
09.12.2019 12:00:00 5,7 2,1 5,8 4,6 4,3 7,1 18 10 38 21 S 1005,6 55 0 0,0
09.12.2019 11:00:00 5,2 2,0 4,8 4,2 4,3 7,1 26 14 40 21 S 1005,8 50 0 0,0
09.12.2019 10:00:00 4,8 2,4 4,4 3,8 4,3 7,1 24 13 33 18 S 1006,1 55 0 0,0
09.12.2019 09:00:00 4,9 2,0 3,9 3,8 4,4 7,1 18 10 34 18 SSW 1006,2 27 0 0,0
09.12.2019 08:00:00 5,1 1,8 4,4 3,6 4,5 7,1 20 11 27 15 SSW 1005,9 53 0 0,0
09.12.2019 07:00:00 4,8 2,2 3,4 3,5 4,5 7,1 11 6 20 11 SSW 1005,9 53 0 0,0
09.12.2019 06:00:00 5,1 2,7 4,0 4,3 4,6 7,1 14 7 28 15 SW 1005,9 57 0 0,0
09.12.2019 05:00:00 5,6 2,7 5,0 4,5 4,6 7,1 23 13 33 18 SW 1006,2 54 0 0,0
09.12.2019 04:00:00 5,3 3,2 4,3 4,7 4,5 7,1 14 8 29 15 WSW 1006,0 59 0 0,0
09.12.2019 03:00:00 6,2 3,9 5,5 5,1 4,5 7,1 14 8 32 18 WSW 1005,6 74 0 0,1
09.12.2019 02:00:00 6,9 5,4 6,2 5,3 4,4 7,1 30 16 66 36 W 1005,7 10 0 0,6
09.12.2019 01:00:00 7,0 5,4 6,5 5,1 4,4 7,1 16 9 30 16 SW 1004,6 50 0 0,0
09.12.2019 00:00:00 6,6 5,2 6,1 5,0 4,3 7,1 16 9 34 18 SW 1005,1 54 0 0,0
08.12.2019 23:00:00 6,3 5,0 5,8 4,9 4,2 7,1 15 8 29 16 SW 1005,4 3,6 0 0,3
08.12.2019 22:00:00 6,8 4,4 5,7 4,8 4,2 7,1 18 10 34 18 SSW 1006,0 13 0 0,9
08.12.2019 21:00:00 6,9 3,8 6,2 4,7 4,1 7,1 13 7 23 12 SSW 1006,4 71 0 0,0
08.12.2019 20:00:00 6,7 3,9 5,6 4,7 4,1 7,1 16 9 27 14 SSW 1007,2 21 0 0,1
08.12.2019 19:00:00 6,8 3,4 5,6 4,7 4,0 7,1 20 11 32 17 S 1007,8 24 0 0,0
08.12.2019 18:00:00 6,9 3,4 6,3 4,6 4,0 7,1 20 11 35 19 S 1008,3 66 0 0,0
08.12.2019 17:00:00 6,9 3,4 6,3 4,7 3,9 7,1 22 12 37 20 SSW 1008,7 75 0 0,0
08.12.2019 16:00:00 6,7 3,2 6,2 4,7 3,8 7,1 18 10 34 19 S 1009,1 75 0 0,0
08.12.2019 15:00:00 6,5 2,9 6,0 4,8 3,7 7,1 18 10 31 17 S 1010,2 62 0 0,0
08.12.2019 14:00:00 6,3 2,7 6,0 5,0 3,6 7,1 19 10 37 20 SSW 1011,2 75 0 0,0
08.12.2019 13:00:00 6,4 2,5 6,3 5,1 3,4 7,2 30 16 43 23 SSW 1012,1 75 0 0,0
08.12.2019 12:00:00 6,0 2,7 6,2 4,8 3,3 7,2 20 11 37 20 SSW 1013,1 75 0 0,0
08.12.2019 11:00:00 5,6 2,7 5,7 4,3 3,2 7,2 24 13 41 22 SSW 1013,8 74 0 0,0
08.12.2019 10:00:00 5,5 2,4 5,4 3,8 3,1 7,2 27 15 40 21 SSW 1014,5 67 0 0,0
08.12.2019 09:00:00 5,1 2,5 4,8 3,4 3,0 7,2 26 14 43 23 SSW 1014,9 68 0 0,0
08.12.2019 08:00:00 4,9 2,3 4,5 3,3 2,9 7,2 22 12 42 23 SSW 1014,9 70 0 0,0
08.12.2019 07:00:00 5,1 2,3 4,7 3,2 2,9 7,2 26 14 41 22 SSW 1015,3 67 0 0,0
08.12.2019 06:00:00 5,1 2,5 4,7 3,2 2,8 7,2 26 14 39 21 SSW 1015,5 50 0 0,0

tt = temperature
td = dewpoint
tt 5cm = temperature 5cm
tt -5cm = temperature -5cm
tt -20cm = temperature -20cm
tt -100cm = temperature -100cm
ff = wind speed
fx = gusts
dd = wind direction
ppp = reduced air pressure
vv = visibility
sd = sunshine duration
rr = precipitation

Next stations